Probability
32 10 6 16 16 10 0 0 0 0 0 0 0 0 0 0 0 0 10 19 19 23 45 74 81 68 71 68 68 71 74 71 77 77 77 77 68 68 68 68 68 65 71 71 58 48 48 52 42
10 10 13 23 13 0 0 0 0 0 0 0 3 0 0 6 13 10 13 19 13 19 29 61 87 77 65 68 68 68 74 74 74 74 74 71 77 71 68 68 74 68 55 48 39 35 39 42 39
6 16 19 16 10 0 0 0 0 0 0 0 3 3 0 6 10 13 10 13 19 26 35 65 84 84 77 65 65 68 68 74 74 74 71 71 68 65 65 68 65 65 52 42 39 35 39 39 32
19 32 19 13 0 0 3 0 0 0 0 0 0 0 0 0 13 16 16 13 19 23 39 68 81 81 77 74 74 71 74 74 74 74 81 74 74 68 61 65 58 52 45 39 39 35 39 35 35
29 19 13 13 3 0 0 0 0 0 0 0 0 0 0 6 19 10 3 10 16 26 35 65 87 77 81 81 81 81 81 74 77 77 74 68 68 65 65 58 52 48 48 42 42 39 32 39 48
26 19 13 3 3 0 0 0 0 0 0 0 0 0 0 6 6 6 10 10 10 19 32 68 90 81 81 84 77 77 77 77 77 74 71 65 61 61 52 52 52 45 45 48 45 45 48 48 42
23 16 6 0 0 0 0 0 0 0 0 0 0 0 0 3 6 3 3 10 6 13 19 29 45 71 71 74 81 81 77 81 77 77 68 65 58 52 55 58 58 52 45 45 45 48 42 45 45
26 10 0 0 0 0 0 0 0 3 6 0 0 0 0 0 3 3 3 6 3 6 13 13 23 29 39 55 77 81 77 77 71 74 71 71 68 65 58 61 65 58 52 52 52 52 42 45 45
23 10 0 0 0 0 0 0 3 3 3 3 0 0 0 0 0 0 6 6 3 3 3 3 10 10 10 26 42 55 68 71 65 61 65 65 45 39 45 48 58 61 58 58 55 52 48 48 48
10 0 0 0 0 0 0 0 3 6 3 3 3 0 0 0 0 0 0 3 0 0 3 3 3 6 6 16 16 26 29 26 23 23 42 26 13 13 16 39 61 65 65 55 61 58 58 45 26
6 0 0 0 0 0 0 0 3 10 3 0 3 6 3 0 0 0 0 0 0 0 0 0 0 0 6 3 3 3 3 10 10 10 13 10 6 6 13 6 23 39 35 26 26 39 29 19 10
0 0 0 0 0 0 0 0 0 6 6 6 6 6 3 0 0 0 3 3 3 3 6 6 6 0 3 3 6 3 3 3 3 10 3 0 3 6 6 3 13 19 13 10 10 10 13 16 13
0 0 0 0 0 0 0 0 3 3 3 6 6 6 3 0 0 3 3 3 6 3 3 3 6 6 10 13 6 19 6 6 10 10 3 3 3 3 3 3 6 16 6 6 3 3 3 10 10
0 3 0 0 0 0 0 3 3 3 6 6 6 3 3 0 0 3 3 3 6 3 3 10 6 6 6 10 6 13 10 3 6 10 13 10 3 6 6 6 16 13 6 13 10 3 3 3 10
0 0 0 0 0 0 0 0 3 3 6 6 10 6 3 3 0 3 3 3 6 3 3 10 13 10 13 16 13 10 3 6 6 10 16 10 3 6 10 13 16 16 6 6 6 6 6 10 10
0 0 0 0 0 0 0 0 3 3 3 3 6 10 10 6 13 13 10 6 10 6 13 23 29 19 13 13 13 10 13 6 10 10 3 10 6 13 10 13 16 16 10 10 10 10 13 6 6
0 0 0 0 0 0 0 0 3 3 3 3 6 10 10 10 13 19 19 10 16 3 6 26 23 10 13 16 13 16 16 10 13 13 3 13 26 26 16 13 16 23 23 16 16 16 10 10 3
0 0 0 0 0 0 0 0 3 3 3 6 6 10 10 6 13 23 26 26 16 6 6 23 29 23 23 23 23 19 19 16 10 13 13 19 23 23 26 23 23 23 23 23 16 16 13 10 6
0 0 0 0 0 0 0 0 3 3 6 10 6 10 10 10 13 23 26 29 26 23 26 32 29 26 23 26 26 23 19 13 13 13 16 16 19 23 26 23 23 16 19 23 13 16 13 6 3
0 0 0 0 0 0 3 3 3 3 6 6 6 10 13 16 16 23 26 29 26 26 29 26 32 32 32 29 23 26 19 16 19 16 16 19 23 23 23 23 13 13 13 13 13 16 13 10 3
0 0 0 0 0 0 3 6 3 6 3 6 6 16 10 13 23 26 26 29 29 26 32 32 29 32 32 29 26 26 19 16 19 23 23 26 26 19 16 10 10 16 10 13 10 13 16 13 6
0 0 0 0 0 0 0 0 3 3 10 10 13 23 19 19 23 13 23 32 29 29 29 23 32 29 26 23 26 29 26 23 19 19 16 23 23 26 19 13 13 13 13 19 19 16 13 10 3
0 0 0 0 0 0 0 0 0 3 13 13 19 19 16 16 16 19 26 29 29 26 29 29 26 29 26 32 26 23 23 10 10 16 16 19 19 16 16 19 16 13 16 19 16 19 19 13 10
0 0 0 0 0 0 0 0 0 3 6 19 19 16 19 16 19 23 19 23 35 35 32 32 35 32 32 35 35 26 23 16 16 19 23 26 23 16 19 19 19 16 23 29 23 23 23 19 16
0 0 0 0 0 0 0 0 0 0 0 19 16 19 23 16 16 19 19 19 29 29 32 39 35 35 35 32 35 32 23 19 19 26 23 23 23 26 23 26 16 16 23 26 23 23 23 26 19
0 0 0 0 0 0 0 3 3 0 3 6 16 19 23 19 19 16 19 23 26 32 29 32 35 39 42 39 42 42 29 19 29 29 26 32 26 26 19 19 16 19 23 26 26 23 23 26 19
0 0 0 0 0 0 0 0 0 3 3 6 13 13 16 26 26 19 29 29 26 29 29 35 35 39 42 45 45 42 32 39 35 32 29 26 26 26 26 23 19 19 16 23 23 23 23 23 23
0 0 0 0 0 0 0 0 0 3 6 10 10 6 13 19 19 19 19 26 29 32 39 42 35 35 35 45 42 39 39 29 29 29 29 26 23 23 23 29 19 23 23 23 23 19 19 23 23
0 0 0 0 0 0 0 0 0 0 3 10 6 6 16 16 19 23 19 23 26 35 35 39 45 45 48 48 42 42 42 35 26 29 26 29 26 16 19 26 19 19 19 23 26 23 23 23 23
0 0 0 0 0 0 0 3 3 0 0 3 3 10 16 19 26 26 10 16 26 32 35 39 42 42 42 42 42 42 42 35 32 39 35 29 26 26 29 23 19 16 19 23 19 23 19 23 23
Height
5901 5900 5899 5899 5898 5896 5895 5894 5894 5893 5893 5891 5890 5890 5889 5889 5889 5890 5887 5886 5885 5885 5885 5885 5885 5886 5886 5886 5886 5887 5886 5886 5886 5886 5886 5886 5886 5886 5886 5886 5886 5886 5885 5885 5884 5884 5883 5882 5882
5902 5902 5902 5901 5898 5897 5897 5895 5895 5894 5894 5892 5891 5890 5889 5889 5888 5888 5887 5887 5886 5886 5886 5886 5886 5887 5887 5887 5888 5888 5888 5887 5887 5887 5887 5887 5887 5887 5887 5887 5887 5886 5886 5885 5885 5884 5883 5883 5882
5903 5903 5903 5901 5898 5899 5898 5897 5896 5895 5894 5893 5892 5891 5890 5889 5888 5888 5887 5887 5887 5887 5887 5887 5887 5888 5888 5888 5889 5889 5889 5889 5889 5889 5888 5888 5888 5888 5888 5887 5887 5887 5886 5885 5885 5884 5884 5883 5883
5905 5904 5904 5902 5900 5900 5900 5899 5898 5897 5895 5894 5893 5892 5891 5890 5889 5889 5888 5888 5888 5888 5888 5888 5888 5889 5889 5889 5890 5890 5890 5890 5890 5890 5890 5889 5889 5889 5888 5888 5887 5887 5886 5886 5885 5885 5885 5884 5884
5907 5906 5905 5903 5902 5902 5901 5900 5899 5898 5897 5895 5894 5893 5892 5891 5890 5889 5889 5889 5889 5889 5890 5890 5890 5890 5890 5890 5890 5891 5891 5891 5891 5891 5891 5891 5890 5890 5889 5889 5888 5888 5887 5886 5886 5886 5885 5884 5884
5910 5908 5907 5905 5905 5904 5903 5902 5901 5900 5898 5897 5896 5895 5893 5892 5891 5890 5890 5890 5890 5891 5891 5891 5891 5892 5891 5891 5892 5892 5892 5892 5892 5892 5892 5891 5891 5891 5891 5890 5889 5888 5887 5887 5887 5886 5885 5884 5884
5912 5910 5908 5907 5907 5906 5905 5904 5903 5902 5900 5899 5897 5896 5894 5893 5892 5891 5891 5891 5892 5892 5892 5892 5893 5893 5893 5893 5893 5893 5893 5893 5893 5893 5892 5892 5892 5892 5892 5891 5890 5889 5888 5887 5887 5886 5885 5884 5883
5912 5912 5910 5909 5909 5908 5907 5906 5905 5903 5902 5900 5899 5897 5896 5895 5894 5893 5892 5893 5893 5893 5893 5893 5894 5894 5894 5894 5894 5894 5894 5894 5894 5893 5893 5893 5893 5893 5893 5892 5891 5890 5889 5888 5887 5886 5885 5884 5883
5913 5914 5912 5912 5911 5910 5909 5908 5907 5905 5903 5902 5900 5899 5898 5897 5896 5895 5895 5894 5894 5894 5894 5894 5895 5895 5895 5895 5895 5894 5894 5894 5894 5894 5894 5894 5893 5893 5893 5893 5892 5891 5890 5889 5888 5887 5885 5884 5883
5914 5914 5914 5914 5913 5912 5911 5910 5908 5907 5905 5904 5903 5901 5899 5898 5897 5896 5896 5896 5895 5895 5895 5895 5896 5896 5896 5896 5895 5895 5895 5895 5895 5895 5895 5895 5894 5894 5894 5893 5892 5891 5890 5889 5888 5887 5886 5885 5883
5915 5915 5915 5915 5914 5913 5912 5911 5909 5908 5907 5906 5905 5903 5901 5900 5899 5898 5898 5897 5897 5897 5897 5896 5897 5897 5897 5897 5896 5896 5896 5896 5896 5896 5896 5895 5895 5895 5894 5894 5893 5892 5891 5890 5889 5888 5887 5886 5884
5917 5917 5916 5916 5915 5915 5913 5912 5911 5910 5909 5908 5906 5905 5903 5901 5901 5900 5899 5899 5898 5898 5898 5897 5897 5897 5897 5897 5897 5897 5897 5897 5896 5896 5896 5896 5896 5895 5895 5894 5894 5893 5892 5891 5890 5889 5888 5887 5886
5918 5918 5917 5917 5916 5916 5915 5914 5913 5912 5910 5909 5907 5906 5905 5903 5902 5901 5900 5900 5900 5899 5898 5898 5898 5898 5898 5898 5898 5897 5897 5897 5897 5897 5896 5896 5896 5896 5895 5894 5894 5893 5893 5892 5891 5889 5888 5888 5887
5919 5918 5918 5918 5917 5917 5916 5915 5915 5913 5912 5910 5909 5907 5906 5905 5904 5903 5902 5901 5901 5900 5899 5899 5899 5898 5898 5898 5898 5898 5897 5897 5897 5897 5897 5896 5896 5896 5895 5894 5894 5893 5893 5892 5891 5890 5889 5888 5887
5919 5919 5919 5919 5918 5917 5917 5917 5916 5915 5913 5912 5911 5909 5908 5906 5905 5904 5903 5902 5901 5901 5900 5900 5899 5899 5899 5898 5898 5898 5897 5897 5897 5897 5897 5896 5896 5896 5895 5894 5894 5893 5893 5892 5891 5890 5889 5888 5887
5919 5920 5920 5920 5919 5918 5920 5918 5917 5915 5915 5913 5912 5911 5909 5908 5906 5905 5904 5904 5903 5902 5901 5900 5900 5899 5899 5898 5898 5898 5898 5897 5897 5897 5896 5896 5896 5895 5895 5894 5893 5893 5892 5891 5891 5890 5889 5888 5887
5919 5920 5920 5920 5919 5919 5919 5918 5917 5917 5916 5915 5913 5912 5911 5909 5908 5907 5906 5905 5904 5903 5902 5901 5900 5900 5899 5899 5899 5898 5898 5898 5897 5897 5896 5896 5895 5894 5894 5894 5893 5892 5891 5891 5890 5889 5888 5887 5887
5919 5919 5919 5920 5919 5919 5918 5919 5918 5917 5917 5916 5915 5913 5912 5911 5909 5908 5907 5906 5905 5904 5903 5902 5901 5900 5900 5899 5899 5898 5898 5897 5897 5896 5896 5896 5895 5894 5893 5893 5892 5891 5890 5890 5889 5888 5887 5886 5886
5919 5919 5919 5919 5919 5919 5919 5919 5919 5918 5917 5916 5915 5914 5913 5912 5911 5909 5908 5907 5906 5905 5904 5903 5901 5901 5900 5900 5899 5898 5898 5897 5897 5896 5896 5895 5894 5893 5892 5892 5891 5890 5889 5889 5888 5887 5886 5885 5885
5918 5919 5919 5919 5919 5919 5919 5919 5918 5918 5917 5916 5915 5915 5914 5913 5911 5910 5909 5908 5907 5906 5904 5903 5902 5901 5901 5900 5899 5898 5897 5896 5896 5895 5894 5893 5893 5892 5891 5891 5890 5889 5888 5887 5887 5886 5885 5884 5883
5917 5917 5918 5918 5918 5918 5918 5918 5918 5918 5917 5917 5916 5915 5914 5912 5911 5910 5909 5908 5907 5906 5905 5904 5903 5902 5900 5899 5898 5897 5896 5895 5895 5894 5894 5893 5892 5891 5890 5890 5889 5888 5887 5886 5885 5884 5883 5882 5881
5915 5916 5917 5917 5917 5916 5918 5917 5918 5917 5917 5916 5915 5914 5913 5912 5911 5910 5909 5908 5907 5906 5905 5903 5903 5901 5900 5899 5898 5896 5895 5894 5893 5893 5892 5892 5890 5889 5888 5888 5887 5886 5885 5884 5883 5882 5881 5880 5879
5913 5914 5915 5915 5915 5916 5916 5916 5917 5915 5915 5915 5914 5914 5913 5912 5911 5910 5908 5908 5907 5905 5904 5903 5902 5901 5899 5898 5897 5896 5894 5893 5893 5892 5891 5890 5889 5888 5887 5886 5885 5884 5883 5881 5880 5879 5878 5877 5876
5911 5913 5913 5914 5913 5913 5914 5914 5914 5913 5913 5913 5914 5913 5912 5911 5910 5909 5908 5907 5906 5905 5904 5903 5902 5899 5898 5897 5896 5895 5893 5893 5892 5891 5889 5888 5887 5886 5885 5884 5883 5881 5880 5879 5878 5876 5875 5874 5873
5909 5910 5911 5911 5911 5911 5912 5912 5912 5912 5911 5911 5912 5911 5910 5910 5909 5909 5907 5907 5906 5904 5903 5902 5901 5899 5898 5897 5895 5894 5893 5891 5890 5889 5888 5886 5885 5884 5882 5881 5880 5879 5877 5876 5874 5873 5872 5871 5870
5906 5907 5909 5909 5909 5909 5909 5909 5910 5910 5909 5909 5909 5909 5909 5908 5908 5908 5907 5906 5904 5903 5902 5900 5899 5898 5897 5895 5894 5892 5891 5889 5888 5887 5886 5884 5882 5881 5879 5878 5877 5875 5874 5872 5871 5869 5868 5867 5866
5903 5904 5905 5906 5905 5906 5906 5907 5906 5907 5907 5907 5907 5907 5907 5907 5907 5906 5905 5904 5903 5902 5900 5899 5898 5896 5895 5893 5892 5891 5889 5887 5886 5885 5883 5881 5880 5878 5876 5875 5873 5872 5870 5868 5867 5865 5864 5863 5861
5899 5901 5902 5902 5902 5902 5902 5903 5904 5904 5904 5903 5904 5905 5905 5905 5905 5904 5902 5902 5901 5900 5898 5897 5895 5894 5893 5892 5890 5889 5887 5885 5884 5882 5880 5879 5877 5875 5873 5871 5869 5868 5866 5864 5862 5861 5859 5858 5857
5895 5897 5897 5899 5899 5899 5899 5901 5901 5901 5901 5901 5902 5903 5903 5902 5901 5901 5900 5899 5898 5897 5896 5894 5893 5891 5890 5889 5888 5887 5885 5883 5881 5879 5877 5876 5874 5871 5869 5867 5865 5863 5861 5859 5858 5856 5855 5853 5852
5891 5892 5894 5895 5896 5896 5896 5900 5898 5898 5898 5898 5898 5899 5900 5899 5899 5898 5898 5897 5896 5895 5893 5892 5891 5888 5887 5886 5885 5884 5882 5880 5878 5876 5874 5872 5870 5868 5865 5863 5861 5859 5857 5855 5853 5851 5850 5848 5847
Wind_Speed
13 12 12 13 15 16 16 16 15 13 11 10 10 8 8 7 6 6 6 6 6 6 6 6 6 7 7 7 7 8 8 7 6 6 5 5 4 4 3 3 2 1 1 1 2 2 2 2 2
13 13 12 13 15 17 17 16 15 13 11 10 9 8 8 7 6 6 6 7 7 7 7 7 7 7 7 7 8 8 8 8 7 6 6 5 4 3 3 2 2 2 1 2 2 3 3 3 2
13 13 13 13 16 17 18 18 16 15 13 11 10 9 8 7 7 6 6 7 8 8 8 8 8 8 7 7 7 7 8 8 8 8 7 7 5 4 4 3 3 3 2 2 3 3 3 3 3
14 14 14 16 18 18 18 18 18 15 14 12 11 10 9 8 8 7 7 8 8 9 8 8 8 8 8 7 7 7 7 8 8 8 7 7 6 5 5 5 4 4 3 3 3 3 3 2 3
13 16 17 19 19 18 17 17 17 16 14 13 13 12 10 9 9 8 8 8 9 9 9 9 8 8 8 7 7 7 7 7 7 7 6 7 7 7 6 6 6 5 5 4 4 3 2 3 3
13 14 17 18 17 17 17 16 16 16 14 14 13 12 10 9 9 9 9 9 9 9 9 9 8 8 9 8 8 7 7 6 6 6 6 6 6 6 6 6 6 6 5 5 4 3 3 3 2
12 14 16 17 16 16 16 16 16 16 15 14 13 12 11 10 9 9 9 9 9 8 9 9 9 8 8 7 7 7 6 6 5 5 6 6 6 6 6 6 6 6 6 5 4 4 4 3 3
13 14 16 16 15 16 15 16 16 16 15 14 14 13 11 10 9 9 9 9 9 9 8 9 9 8 8 8 7 7 6 6 5 6 6 6 6 6 6 6 6 6 6 6 5 5 5 4 4
13 14 15 15 15 15 15 15 16 15 15 15 14 14 12 12 11 10 9 8 8 9 8 9 9 8 8 7 7 6 6 5 6 6 6 6 6 6 6 6 6 6 6 6 6 6 5 6 6
12 12 14 14 14 14 14 15 15 14 14 14 14 13 13 12 12 11 10 8 8 9 8 9 9 8 7 7 7 6 5 6 6 6 6 6 6 6 6 5 5 5 6 7 6 7 6 7 7
10 11 12 13 13 14 14 15 15 14 14 14 14 13 13 13 12 12 11 10 9 9 8 8 9 8 8 7 7 6 6 6 5 5 5 5 5 5 5 5 6 6 6 7 7 7 7 6 6
9 9 10 11 11 13 14 15 14 14 13 13 13 13 13 13 12 12 12 11 10 9 9 8 9 8 8 7 7 7 7 6 5 5 4 4 5 5 5 5 6 5 6 7 7 7 6 7 6
7 7 8 8 10 12 13 13 13 14 13 14 14 13 13 13 12 12 11 11 10 9 9 8 8 7 7 7 7 6 6 5 5 4 4 4 4 4 4 4 4 4 5 5 6 6 6 6 6
6 6 7 7 8 10 11 12 13 13 14 14 14 14 13 12 12 11 11 10 9 8 8 7 7 7 7 7 7 6 5 5 4 4 4 4 4 3 3 3 3 3 3 4 5 5 5 5 5
6 6 6 6 7 8 10 11 12 12 13 13 14 14 13 12 12 11 11 10 9 9 8 8 7 7 7 7 7 6 5 5 4 4 4 4 3 3 3 3 2 2 3 3 4 4 4 4 4
6 6 7 6 6 7 8 10 10 10 11 12 13 13 13 12 11 11 10 10 9 9 8 8 7 7 7 7 6 5 5 5 4 4 4 4 3 3 4 3 2 2 2 3 3 3 3 3 3
4 5 5 6 6 6 6 8 10 10 10 12 12 13 13 12 11 11 11 10 9 9 8 7 7 7 7 6 6 5 5 5 5 4 4 4 3 3 3 3 2 2 2 3 3 3 3 3 4
3 3 4 5 5 5 6 7 9 9 10 11 11 12 12 12 11 10 10 9 9 8 8 7 7 7 7 6 6 6 6 5 5 3 2 3 3 3 3 3 3 3 3 3 4 4 4 5 4
4 3 3 4 3 4 4 5 6 7 8 9 9 10 11 10 10 10 10 9 8 8 7 8 7 7 7 6 6 5 5 5 4 3 2 2 3 3 3 4 4 3 4 4 5 5 5 6 6
5 4 4 4 2 1 2 3 4 5 7 8 9 9 9 9 9 9 9 9 8 8 7 8 8 7 7 6 6 6 5 5 4 3 3 3 3 3 4 4 4 4 4 5 5 5 6 7 7
7 5 3 3 3 2 3 1 0 2 5 7 7 7 8 8 8 8 8 8 7 7 7 6 6 7 6 6 6 5 5 4 4 3 3 3 3 3 4 5 5 5 6 6 6 7 7 8 8
7 6 4 5 5 4 3 3 2 2 3 5 6 7 8 7 7 7 7 7 6 7 6 6 6 6 6 6 6 6 6 5 5 4 4 4 4 4 5 6 6 7 7 7 7 8 8 9 9
8 7 7 6 7 7 7 6 4 3 3 4 5 6 6 6 6 6 6 5 6 6 6 6 6 6 6 6 7 7 6 5 5 5 6 6 5 6 6 7 8 8 8 8 9 9 9 10 10
10 9 8 8 8 9 8 7 5 4 3 2 3 5 6 6 6 6 6 6 6 6 7 7 7 7 6 6 7 6 6 5 5 6 6 7 7 7 7 8 8 9 10 10 11 11 11 11 11
12 12 11 10 10 10 9 9 7 6 5 3 2 4 5 5 5 5 4 5 5 6 7 7 7 7 7 7 7 6 6 6 6 6 7 8 9 9 10 10 10 11 11 12 12 13 13 13 13
14 14 13 12 12 11 11 11 9 7 6 3 3 4 4 5 5 5 5 5 6 6 7 7 7 7 7 7 7 7 7 7 8 8 9 10 10 11 11 12 12 12 12 13 13 14 14 14 14
15 14 12 14 14 14 14 13 12 9 6 5 4 3 4 4 5 5 6 5 5 6 7 7 7 7 8 8 8 9 9 9 9 10 11 11 11 12 13 14 14 14 14 15 15 14 14 15 15
15 15 15 15 16 15 15 13 11 9 9 6 4 4 4 5 6 7 7 7 7 7 7 7 8 8 8 9 10 11 10 11 11 11 12 12 12 14 15 15 15 15 15 15 15 15 15 15 16
17 16 16 16 16 16 15 13 11 9 7 7 7 6 5 6 8 8 9 8 8 8 8 8 9 9 9 10 11 12 12 12 13 12 13 13 14 15 15 15 16 16 16 16 16 16 17 17 17
19 18 17 17 17 17 16 14 12 10 9 8 7 6 6 7 9 10 10 9 10 10 9 9 11 11 11 12 12 13 14 14 14 15 15 15 16 16 16 17 17 17 17 17 17 17 18 18 18
Wind_Direction
72 69 63 58 59 57 54 49 46 43 42 43 44 43 42 40 42 53 63 69 73 83 82 82 81 89 91 87 85 85 81 88 93 88 81 94 108 107 99 92 86 77 56 53 52 59 67 89 113
69 65 58 59 61 59 54 47 41 42 43 44 45 44 42 45 52 58 70 73 75 80 81 82 86 92 96 95 89 89 83 80 82 83 83 93 104 107 96 87 65 44 56 65 67 69 69 84 93
70 64 60 64 63 56 51 48 44 39 41 44 43 43 43 50 56 61 69 79 78 79 84 88 89 91 94 94 91 86 85 81 79 78 79 82 85 89 82 73 66 59 61 70 80 60 65 74 71
65 62 63 64 60 54 49 46 44 41 41 46 46 44 47 55 63 67 73 80 79 82 86 90 88 91 92 94 96 88 87 85 81 78 76 75 74 80 75 67 67 68 71 80 85 71 68 62 62
65 60 59 58 56 50 45 42 43 44 41 47 47 45 49 61 70 75 78 77 81 84 87 91 89 89 89 92 92 91 89 87 81 77 73 74 77 76 68 63 62 63 70 78 79 75 67 56 63
64 56 57 54 52 47 46 43 40 43 44 46 48 47 51 62 68 78 79 81 82 86 86 87 86 87 85 91 93 90 90 85 81 76 73 77 80 77 72 63 59 63 70 72 73 66 60 59 60
66 58 54 56 51 47 44 44 42 45 46 48 50 49 54 62 66 74 75 77 81 87 88 87 86 85 87 91 91 86 84 84 80 75 71 66 75 77 68 64 62 59 59 63 71 65 61 60 58
69 61 53 54 51 46 43 44 43 45 45 49 49 50 56 63 67 75 72 74 80 88 91 88 86 86 86 89 85 83 85 84 78 77 74 72 77 75 69 63 61 61 64 64 65 63 62 64 63
69 60 52 52 50 48 45 44 45 47 47 48 48 48 56 64 68 73 73 76 80 87 89 88 90 89 85 80 72 78 82 80 82 81 78 76 78 75 70 66 64 65 61 61 65 64 62 65 63
70 61 53 53 50 48 50 47 46 48 49 50 51 52 58 62 65 71 74 78 83 88 88 88 90 87 82 74 67 68 72 84 86 80 74 73 78 76 69 65 61 59 58 60 66 64 66 70 68
76 67 56 49 47 49 48 48 48 48 48 50 53 53 57 63 66 69 72 79 83 87 87 88 90 83 76 70 65 73 77 80 81 81 77 73 75 75 69 65 61 60 60 61 65 63 63 70 69
92 71 58 52 50 48 47 47 47 48 46 49 52 52 55 61 66 69 70 74 79 85 85 86 86 80 74 66 64 74 80 78 78 80 79 79 78 78 75 70 65 62 60 61 61 63 66 67 66
98 86 69 57 48 46 46 49 50 51 48 47 49 50 52 57 59 61 64 69 75 78 78 80 82 76 70 65 72 81 82 81 78 75 74 76 75 74 72 68 63 60 57 56 57 57 59 55 57
91 77 75 64 53 48 48 53 51 54 52 48 50 50 52 53 54 56 58 63 69 68 69 74 73 68 61 67 78 75 78 78 73 75 75 73 66 60 60 59 64 59 57 50 49 41 42 42 41
98 85 80 73 60 52 52 55 53 53 52 49 49 49 50 51 52 54 54 56 58 60 64 66 64 58 59 67 74 69 75 76 70 77 79 74 63 46 47 52 49 47 46 41 34 31 26 26 27
105 95 84 79 73 66 52 50 51 49 49 49 46 45 47 50 50 51 52 54 57 57 58 58 59 59 61 61 61 59 69 73 66 65 67 61 56 48 33 26 24 25 20 13 6 14 6 7 2
119 103 93 92 85 76 58 44 46 44 45 46 45 42 43 47 50 51 53 56 57 55 54 53 52 55 55 57 57 60 62 58 57 50 51 44 46 43 29 21 8 352 346 342 338 340 343 343 338
130 111 112 106 78 60 55 40 42 42 44 45 45 42 41 41 46 49 50 51 50 47 45 45 49 53 51 55 52 51 43 40 38 37 40 30 27 25 22 16 4 350 336 325 325 321 322 320 319
164 158 128 125 98 66 49 39 37 37 43 43 45 42 38 40 44 44 44 43 42 43 43 40 45 51 48 43 38 34 29 29 26 23 23 18 19 9 1 358 356 346 334 329 328 321 313 310 308
179 176 158 140 114 48 7 24 24 29 43 45 42 40 38 36 41 42 41 41 43 45 45 40 37 40 33 24 18 17 19 22 19 17 3 358 12 4 353 340 334 336 330 325 323 321 310 306 305
190 195 185 175 187 250 305 335 351 18 30 39 37 33 31 28 29 29 30 31 32 34 37 38 28 23 18 15 13 9 3 4 9 355 343 357 352 336 327 326 323 322 317 315 314 312 307 303 301
203 208 219 226 225 241 289 320 308 329 3 20 23 26 22 16 19 20 19 22 23 23 20 23 13 9 14 16 11 2 354 354 357 346 337 326 318 319 318 317 319 315 312 309 307 306 301 298 297
209 209 229 240 248 249 265 276 292 304 332 6 18 21 23 14 13 10 8 18 18 12 9 10 3 356 357 2 359 358 356 353 352 345 344 334 317 310 309 309 311 309 308 306 302 301 297 293 290
213 218 229 237 250 257 251 257 269 282 304 347 16 9 15 12 5 8 7 9 12 7 3 357 351 349 353 357 356 356 357 353 346 340 338 336 326 314 312 308 307 304 302 302 301 298 294 292 289
221 227 233 238 240 251 252 252 261 286 291 286 330 349 359 1 358 2 6 3 2 357 352 349 347 348 352 353 352 348 341 337 328 325 325 325 324 319 313 311 307 305 301 301 299 297 294 290 288
225 227 233 239 245 257 259 259 264 273 280 264 290 329 342 343 345 343 339 341 343 341 342 342 341 345 347 345 341 339 332 327 324 320 320 322 323 321 313 309 306 307 307 305 301 297 293 289 287
227 225 231 241 251 258 262 263 263 271 272 266 275 311 331 327 321 325 327 326 330 331 331 332 332 336 337 337 335 334 330 324 322 319 316 317 319 318 313 311 310 308 307 304 301 298 293 290 288
229 229 232 238 248 257 262 267 269 277 278 272 274 279 306 310 309 309 314 320 320 320 320 323 326 324 327 332 330 332 330 325 321 317 318 317 314 312 312 311 310 310 307 305 303 298 294 291 290
226 228 232 238 246 253 258 266 281 282 275 277 282 275 289 305 308 308 313 319 319 318 311 308 315 319 320 326 324 323 323 321 320 316 315 315 313 311 309 308 308 308 304 300 298 295 293 291 292
230 232 235 240 247 253 261 266 276 274 279 282 278 270 276 293 298 302 309 316 318 313 310 307 313 312 311 316 318 317 315 314 313 312 311 312 311 309 309 306 305 302 302 299 295 291 290 289 289